Location: Castelnau
(43.6639°N, 0.8431°W)
Time: 15:46:58
(UTC+00:00)

CZ-2D R/B - Pass Details

Date: 13 January 2026
Orbit: 389 x 399 km, 97.4° (Epoch: 11 February)

Event Time Altitude Azimuth Distance (km) Brightness Sun altitude
Rises 07:01:43 0° 6° (N) 2,333 6.3 -6.2°
Reaches altitude 10° 07:03:46 10° 359° (N) 1,464 5.3 -5.8°
Maximum altitude 07:06:45 43° 287° (WNW) 573 3.0 -5.4°
Drops below altitude 10° 07:09:41 10° 213° (SSW) 1,439 5.4 -4.9°
Sets 07:11:41 0° 207° (SSW) 2,287 6.5 -4.5°
